CAPELLA-6 (WHITNEY) (48605 NORAD) Tracking and Keplerian Element Data

This shows tracking and keplerian element data for the satellite.

Feedback or suggestion? Click here.




ElementValue
Catalog48605
NameCAPELLA-6 (WHITNEY)
Epoch Orbit1187
Epoch Day215.22074207
Epoch Year2021
RAAN124.3753
Inclination53.0356
Eccentricity0.0013328
Argument of Perigee188.4969
Mean Anonmoly171.5792
Mean Motion14.96618177
Decay Rate7.1E-07
L11 48605U 21041BE 21215.22074207 .00000071 00000-0 28758-4 0 9998
L22 48605 53.0356 124.3753 0013328 188.4969 171.5792 14.96618177 11873

Live tracking and technical data element details for CAPELLA-6 (WHITNEY) (NORAD 48605). CAPELLA-6 (WHITNEY) can be tracked NOW for your location showing map with azimuth and elevation plus other details from your city location.

Track the satellite on the map from your city or location and see movement details for azimuth, elevation, latitude, longitude, range, height, and movement on the map or in text.







IsCatalogInMostPopularTable: catalog: 48605, numindb: 17
Update: records affected: 1



GetName: 48605 CAPELLA-6 (WHITNEY)

Hit Count: updated at: Tue, 03 Aug 2021 23:19:56 GMT